Усть-Каренга

Россия / Забайкальский край     54°26′23″N   116°31′22″E
темп.,
°C
ветер,
м/с
пор.,
м/с
влажн.,
%
обл.,
%
осадки,
мм/ч
давл.,
гПа
погр.,
м
14 мая, пт
пт1400:000ссз258570 0.0 1010132
03:00−1сз119884 0.1 101129
06:00+1сз1299100 0.6 101196
09:00+2с2690100 1.2 1011575
12:00+6ссв4670100 0.3 10101120
15:00+9с4748100 0.6 10081860
18:00+10ссв4744100 0.1 10081891
21:00+6св226486 0.1 101024
15 мая, сб
сб1500:00+1сз11815 0.0 101310
03:000з11804 0.0 101410
06:00−1з11743 0.0 101510
09:00+8з12425 0.0 1013683
12:00+11зюз34305 0.0 10092173
15:00+14з35212 0.0 10062535
18:00+15зюз472423 0.0 10032691
21:00+8юз224694 0.0 100315
16 мая, вс
вс1600:00+6з512440 0.0 1005605
03:00+3з411465 0.0 1005581
06:00+2з211590 0.0 1005454
09:00+9зсз68370 0.0 10021266
12:00+13з61226100 0.0 10003519
15:00+15зсз6151970 0.0 9964114
18:00+13ссз6122236 0.0 9983435
21:00+6с593956 0.0 1005741
17 мая, пн
пн1700:00+1сз215125 0.0 100813
03:00−1з1163100 0.0 100910
06:000ю1159100 0.0 100836
09:00+5ю2241100 0.0 1006668
12:00+9юз2431100 0.0 10021906
15:00+10юз3339100 0.0 10001972
18:00+10ююз234185 0.1 9991644
21:00+6ююз116193 0.1 99921
18 мая, вт
вт1800:00+2ссз2699100 3.8 1003337
03:00+1з129567 5.8 1004196
06:00+1зюз129397 0.0 1004198
09:00+6зюз245871 0.5 1002973
12:00+9з5736100 0.3 10002913
15:00+10зюз5835100 0.3 9992943
18:00+8сз344786 0.4 10001063
21:00+4всв217495 0.5 100025